Retour au catalogue

FENGYUN 1C DEB

ActifSSO
NORAD 30822·DEBRIS·🇨🇳 China

Lancé May 10, 1999 depuis Taiyuan Satellite Launch Center

Loading…

Prochains Passages (prochaines 24 heures)

TLE

FraisSource: Space-Track

Époque: Sep 14, 2026, 12:56 UTC

1 30822U 99025AVG 26257.53909839  .00000361  00000-0  21684-3 0  9992
2 30822  98.7116 282.8930 0073134 221.1787 293.4722 14.11642080  5884

Suivez FENGYUN 1C DEB en temps réel avec AllMySat

Download on the App Store